Change the Weather History Date:

Sunday, November 11, 2012

  Actual Average Record
Temperature  
Mean Temperature 40 °F -  
Max Temperature 46 °F 49 °F 55 °F (1999)
Min Temperature 35 °F 38 °F 27 °F (2000)
Degree Days  
Heating Degree Days 24    
Moisture  
Dew Point 34 °F    
Average Humidity 73    
Maximum Humidity 86    
Minimum Humidity 60    
Precipitation  
Precipitation 0.13 in - - ()
Sea Level Pressure  
Sea Level Pressure 30.16 in    
Wind  
Wind Speed 7 mph (East)    
Max Wind Speed 16 mph    
Max Gust Speed 24 mph    
Visibility 10 miles    
Events Rain    
Averages and records for this station are not official NWS values.
T = Trace of Precipitation, MM = Missing Value Source: NWS Daily Summary

Daily Weather History Graph

Daily Weather History Graph

Search for Another Location

Airport or City:

Trip Planner

Search our weather history database for the weather conditions in past years. The results will help you decide how hot, cold, wet, or windy it might be!

Date:

Astronomy

Nov. 11, 2012 Rise Set
Actual Time 7:14 AM PST 4:36 PM PST
Civil Twilight 6:40 AM PST 5:10 PM PST
Nautical Twilight 6:03 AM PST 5:48 PM PST
Astronomical Twilight 5:26 AM PST 6:25 PM PST
Moon 4:25 AM PST (11/11) 3:11 PM PST (11/11)
Length of Visible Light 10h 30m
Length of Day
9h 22m
Waning Crescent, 6% of the Moon is Illuminated
Nov 11
Waning Crescent
Nov 13
New
Nov 20
First Quarter
Nov 28
Full
Dec 6
Last Quarter

Hourly Weather History & Observations

Time (PST) Temp. Windchill Dew Point Humidity Pressure Visibility Wind Dir Wind Speed Gust Speed Precip Events Conditions
12:53 AM 35.1 °F - 28.9 °F 78% 30.24 in 10.0 mi Calm Calm - N/A   Clear
1:53 AM 37.0 °F 34.5 °F 30.0 °F 76% 30.24 in 10.0 mi NE 3.5 mph - N/A   Clear
2:53 AM 37.9 °F 35.5 °F 30.0 °F 73% 30.23 in 10.0 mi NNE 3.5 mph - N/A   Clear
3:53 AM 39.0 °F 32.8 °F 30.9 °F 73% 30.22 in 10.0 mi East 9.2 mph - N/A   Clear
4:53 AM 39.0 °F 34.0 °F 30.9 °F 73% 30.22 in 10.0 mi East 6.9 mph - N/A   Mostly Cloudy
5:53 AM 39.9 °F 34.5 °F 28.9 °F 65% 30.21 in 10.0 mi East 8.1 mph - N/A   Overcast
6:53 AM 39.9 °F 35.1 °F 28.9 °F 65% 30.22 in 10.0 mi East 6.9 mph - N/A   Overcast
7:10 AM 41.0 °F 37.1 °F 28.4 °F 61% 30.21 in 10.0 mi ENE 5.8 mph - N/A   Overcast
7:40 AM 41.0 °F 37.1 °F 28.4 °F 61% 30.20 in 10.0 mi ENE 5.8 mph - N/A   Overcast
7:53 AM 41.0 °F 36.4 °F 28.9 °F 62% 30.21 in 10.0 mi ENE 6.9 mph - N/A   Overcast
8:35 AM 41.0 °F 37.1 °F 28.4 °F 61% 30.20 in 10.0 mi ENE 5.8 mph - N/A   Overcast
8:53 AM 41.0 °F 36.4 °F 30.0 °F 65% 30.21 in 10.0 mi NE 6.9 mph - N/A   Overcast
9:21 AM 42.8 °F 38.6 °F 30.2 °F 61% 30.21 in 10.0 mi NE 6.9 mph - N/A   Overcast
9:35 AM 42.8 °F 38.6 °F 30.2 °F 61% 30.21 in 10.0 mi NE 6.9 mph - N/A   Overcast
9:53 AM 42.1 °F 38.4 °F 30.0 °F 62% 30.22 in 10.0 mi ENE 5.8 mph - N/A   Overcast
10:53 AM 44.1 °F 38.6 °F 30.9 °F 60% 30.21 in 10.0 mi East 10.4 mph - N/A   Overcast
11:53 AM 44.1 °F 38.6 °F 34.0 °F 68% 30.19 in 10.0 mi East 10.4 mph 17.3 mph N/A   Overcast
12:13 PM 42.8 °F 38.0 °F 35.6 °F 76% 30.18 in 10.0 mi ENE 8.1 mph - 0.00 in Rain Light Rain
12:53 PM 44.1 °F 38.1 °F 35.1 °F 71% 30.17 in 10.0 mi East 11.5 mph 18.4 mph 0.00 in   Overcast
1:53 PM 44.1 °F 37.1 °F 36.0 °F 73% 30.14 in 10.0 mi East 15.0 mph - N/A   Overcast
2:53 PM 45.0 °F 38.9 °F 37.0 °F 74% 30.13 in 10.0 mi East 12.7 mph 19.6 mph N/A   Overcast
3:53 PM 46.0 °F 40.2 °F 37.0 °F 71% 30.11 in 10.0 mi East 12.7 mph - N/A   Overcast
4:53 PM 45.0 °F 37.9 °F 39.0 °F 80% 30.08 in 6.0 mi East 16.1 mph 21.9 mph 0.00 in Rain Light Rain
5:53 PM 44.1 °F 36.8 °F 39.9 °F 85% 30.07 in 8.0 mi East 16.1 mph 23.0 mph 0.04 in Rain Light Rain
6:03 PM 44.6 °F 37.8 °F 39.2 °F 81% 30.06 in 7.0 mi East 15.0 mph - 0.00 in Rain Light Rain
6:53 PM 45.0 °F 37.9 °F 41.0 °F 86% 30.05 in 6.0 mi ESE 16.1 mph - 0.06 in Rain Light Rain
7:53 PM 45.0 °F 38.5 °F 41.0 °F 86% 30.04 in 10.0 mi East 13.8 mph - 0.03 in Rain Light Rain
8:53 PM 45.0 °F 39.7 °F 41.0 °F 86% 30.04 in 10.0 mi East 10.4 mph - 0.00 in   Overcast
9:53 PM 46.0 °F 39.6 °F 42.1 °F 86% 30.04 in 10.0 mi East 15.0 mph 21.9 mph N/A   Overcast
10:53 PM 46.0 °F 39.6 °F 42.1 °F 86% 30.04 in 10.0 mi ESE 15.0 mph - 0.00 in   Overcast
11:53 PM 46.9 °F - 43.0 °F 86% 30.04 in 10.0 mi ESE 15.0 mph 24.2 mph 0.00 in   Overcast